STARLINK-5666 (55349 NORAD) Tracking and Keplerian Element Data

This shows tracking and keplerian element data for the satellite.

Feedback or suggestion? Click here.




ElementValue
Catalog55349
NameSTARLINK-5666
Epoch Orbit1602
Epoch Day126.86254305
Epoch Year2023
RAAN179.5565
Inclination43.0006
Eccentricity0.0001242
Argument of Perigee266.0501
Mean Anonmoly94.02
Mean Motion15.02536518
Decay Rate1.725E-05
L11 55349U 23013U 23126.86254305 .00001725 00000+0 14271-3 0 9994
L22 55349 43.0006 179.5565 0001242 266.0501 94.0200 15.02536518 16028



Live tracking and technical data element details for STARLINK-5666 (NORAD 55349). STARLINK-5666 can be tracked NOW for your location showing map with azimuth and elevation plus other details from your city location.







IsCatalogInMostPopularTable: catalog: 55349, numindb: -1

Insert: records affected: 1


GetName: 55349 STARLINK-5666

Hit Count: inserted at: Mon, 05 Jun 2023 19:36:57 GMT